CW4352 Weather Reports


time (UTC)temp
C
wind
direction
speed
KPH
gust
KPH
rain 1hr
cm
rain 24hr
cm
rain mn
cm
humidity
%
barometer
mb
20260831053204 21 267 4.8 8.0 0.00 0.00 0.00 56 1009.5
20260831051705 21 267 3.2 4.8 0.00 0.00 0.00 57 1009.5
20260831051205 21 267 4.8 4.8 0.00 0.00 0.00 57 1009.5
20260831044705 21 267 4.8 8.0 0.00 0.00 0.00 56 1009.5
20260831044204 21 267 4.8 4.8 0.00 0.00 0.00 56 1009.5
20260831043705 21 267 4.8 8.0 0.00 0.00 0.00 56 1009.3
20260831043205 21 267 3.2 11.3 0.00 0.00 0.00 56 1009.3
20260831041704 21 267 1.6 4.8 0.00 0.00 0.00 57 1009.3
20260831041205 21 267 1.6 4.8 0.00 0.00 0.00 57 1009.3
20260831034704 21 267 3.2 9.7 0.00 0.00 0.00 55 1009.2
20260831034204 21 267 3.2 8.0 0.00 0.00 0.00 55 1009.5
20260831033205 21 267 3.2 14.5 0.00 0.00 0.00 54 1009.5
20260831031205 22 284 8.0 11.3 0.00 0.00 0.00 54 1009.5
20260831030704 21 286 6.4 11.3 0.00 0.00 0.00 55 1009.5
20260831030204 21 286 6.4 9.7 0.00 0.00 0.00 55 1009.5
20260831024706 21 286 3.2 4.8 0.00 0.00 0.00 58 1009.6
20260831020704 21 287 3.2 9.7 0.00 0.00 0.00 57 1009.9
20260831020205 21 287 8.0 8.0 0.00 0.00 0.00 58 1009.9
20260831014704 22 287 1.6 4.8 0.00 0.00 0.00 56 1009.9
20260831014204 22 287 3.2 4.8 0.00 0.00 0.00 56 1009.9
20260831013705 22 287 1.6 4.8 0.00 0.00 0.00 56 1009.8
20260831011204 22 287 1.6 4.8 0.00 0.00 0.00 56 1009.8
20260831010705 22 287 1.6 4.8 0.00 0.00 0.00 56 1009.8
20260831004705 22 287 3.2 4.8 0.00 0.00 0.00 57 1010.0
20260831001704 22 287 4.8 8.0 0.00 0.00 0.00 55 1010.0
20260831001204 22 287 3.2 4.8 0.00 0.00 0.00 55 1010.0
20260831000204 22 287 3.2 4.8 0.00 0.00 0.00 55 1010.0
20260830234704 23 287 1.6 4.8 0.00 0.00 0.00 54 1010.0
20260830233704 23 287 1.6 4.8 0.00 0.00 0.00 54 1010.0
20260830230706 23 287 4.8 9.7 0.00 0.00 0.00 53 1010.0
20260830221704 23 5 3.2 4.8 0.00 0.00 0.00 54 1009.8
20260830220705 23 5 1.6 4.8 0.00 0.00 0.00 54 1009.8
20260830214704 23 5 1.6 3.2 0.00 0.00 0.00 53 1009.8
20260830213704 23 5 1.6 3.2 0.00 0.00 0.00 53 1009.7
20260830213204 23 5 1.6 4.8 0.00 0.00 0.00 53 1009.5
20260830211204 24 5 1.6 4.8 0.00 0.00 0.00 53 1009.5
20260830201703 25 5 3.2 4.8 0.00 0.00 0.00 50 1009.5
20260830200203 25 5 1.6 3.2 0.00 0.00 0.00 50 1009.5
20260830193703 25 5 1.6 3.2 0.00 0.00 0.00 48 1009.5
20260830191703 26 5 1.6 3.2 0.00 0.00 0.00 46 1009.3
20260830191203 26 5 0.0 0.0 0.00 0.00 0.00 46 1009.3
20260830190703 26 5 0.0 0.0 0.00 0.00 0.00 45 1009.3
20260830184203 27 5 0.0 0.0 0.00 0.00 0.00 42 1009.0
20260830183703 27 5 0.0 0.0 0.00 0.00 0.00 41 1009.0
20260830183204 28 5 0.0 0.0 0.00 0.00 0.00 41 1009.0
20260830181203 28 5 0.0 0.0 0.00 0.00 0.00 38 1008.5
20260830174205 29 5 3.2 4.8 0.00 0.00 0.00 36 1008.5
20260830171205 30 355 3.2 4.8 0.00 0.00 0.00 35 1008.5
20260830170705 30 4 3.2 4.8 0.00 0.00 0.00 35 1008.5
20260830164205 31 11 4.8 8.0 0.00 0.00 0.00 34 1008.6
20260830161205 31 27 3.2 4.8 0.00 0.00 0.00 35 1008.6
20260830160205 31 9 1.6 11.3 0.00 0.00 0.00 35 1008.7
20260830154205 31 36 3.2 8.0 0.00 0.00 0.00 33 1008.7
20260830153705 31 9 1.6 4.8 0.00 0.00 0.00 34 1008.7
20260830151205 31 17 3.2 12.9 0.00 0.00 0.00 30 1008.9
20260830150705 31 5 1.6 4.8 0.00 0.00 0.00 31 1008.9
20260830144205 32 53 3.2 9.7 0.00 0.00 0.00 27 1009.0
20260830143205 32 51 3.2 4.8 0.00 0.00 0.00 29 1009.0
20260830141705 31 22 1.6 4.8 0.00 0.00 0.00 27 1009.0
20260830140205 31 12 3.2 8.0 0.00 0.00 0.00 30 1009.0
20260830134205 31 47 1.6 4.8 0.00 0.00 0.00 29 1009.5
20260830133205 31 36 1.6 9.7 0.00 0.00 0.00 29 1009.5
20260830131705 31 51 3.2 12.9 0.00 0.00 0.00 28 1009.9
20260830131205 31 16 3.2 8.0 0.00 0.00 0.00 27 1009.9
20260830130206 31 46 1.6 4.8 0.00 0.00 0.00 30 1009.9
20260830123705 31 33 0.0 4.8 0.00 0.00 0.00 28 1009.9
20260830123205 31 43 1.6 4.8 0.00 0.00 0.00 28 1010.0
20260830120705 30 332 3.2 11.3 0.00 0.00 0.00 31 1010.0
20260830114705 30 1 4.8 9.7 0.00 0.00 0.00 31 1010.0
20260830113205 29 34 4.8 9.7 0.00 0.00 0.00 32 1010.1
20260830110705 28 4 4.8 14.5 0.00 0.00 0.00 33 1010.1
20260830110205 28 346 4.8 14.5 0.00 0.00 0.00 34 1010.1
20260830104705 28 20 3.2 8.0 0.00 0.00 0.00 34 1010.5
20260830104204 28 19 3.2 8.0 0.00 0.00 0.00 36 1010.5
20260830103205 28 24 8.0 12.9 0.00 0.00 0.00 35 1010.5
20260830101704 28 27 3.2 8.0 0.00 0.00 0.00 36 1010.5
20260830101205 28 22 4.8 16.1 0.00 0.00 0.00 36 1010.7
20260830100205 28 44 1.6 12.9 0.00 0.00 0.00 36 1010.7
20260830094704 28 351 6.4 12.9 0.00 0.00 0.00 35 1010.7
20260830084705 28 336 0.0 4.8 0.00 0.00 0.00 28 1011.1
20260830083705 28 277 1.6 4.8 0.00 0.00 0.00 28 1011.1
20260830081705 27 231 0.0 3.2 0.00 0.00 0.00 28 1011.1
20260830080704 27 231 0.0 1.6 0.00 0.00 0.00 28 1011.1
20260830080204 27 231 1.6 4.8 0.00 0.00 0.00 28 1011.0
20260830074704 26 231 0.0 3.2 0.00 0.00 0.00 29 1010.8
20260830071205 24 231 0.0 4.8 0.00 0.00 0.00 35 1010.6
20260830064204 22 231 0.0 3.2 0.00 0.00 0.00 37 1010.6
20260830063205 21 231 0.0 3.2 0.00 0.00 0.00 37 1010.0
20260830061204 20 231 0.0 1.6 0.00 0.00 0.00 43 1010.0
20260830060705 20 231 0.0 1.6 0.00 0.00 0.00 43 1010.0
20260830060204 20 231 0.0 4.8 0.00 0.00 0.00 43 1010.0
20260830054705 20 231 3.2 4.8 0.00 0.00 0.00 39 1010.0
20260830054204 19 231 3.2 8.0 0.00 0.00 0.00 40 1010.0
20260830053704 19 231 3.2 4.8 0.00 0.00 0.00 39 1010.0